sat.trackr.live / text

‹ back to catalog

HORS 4 (RS82S)

NORAD 61754 · 2024-199V

PAYLOAD ACTIVE UNKNOWN

§ Identity

Operator
Country
CIS
Launch date
2024-11-04
Launch site
VOSTO
Launch vehicle
Mass (kg)
RCS (m²)

Purposes: comms

External: N2YO · Heavens-Above · Gunter

§ Orbital elements

Epoch: 2026-09-19T21:39:10.434240Z

Period
91.71 min
Inclination
97.2724°
Eccentricity
0.0001194
Mean motion
15.70146378 rev/d
Perigee alt
357.7 km
Apogee alt
359.3 km
Semi-major
6,736.6 km
B*
5.8559e-4
RAAN
143.0316°
Arg perigee
256.2776°
Mean anomaly
103.8354°
Rev number
15,245

§ Raw data

HORS 4 (RS82S)1 61754U 24199V   26262.90220410  .00071043  00000+0  58559-3 0  99932 61754  97.2724 143.0316 0001194 256.2776 103.8354 15.70146378152457

JSON: /api/v1/satellites/61754 · /tle

For live sub-satellite position, see the globe view (requires WebGL).

§ Visibility from observer

Set your observer location to see the next 7 days of passes ≥ 10°. The values pass through the URL so the page stays shareable.

No JS? Fill the form by hand. The geolocation button needs JavaScript.

§ Radio — SatNOGS DB

ModeDescriptionDownlinkUplink
FSK Mode U - FSK38k4 435.700 MHz

1 transmitter · refreshed weekly from db.satnogs.org